Flag for Germany Weather past 2 weeks in Freising, Bavaria, Germany

Now
52 °F

Light rain. Overcast.


Feels Like: 46 °F
Forecast: 40 / 49 °F
Wind: 16 mph from West

Location: Muenchen Flughafen

Current Time: Mar 29, 2015 at 11:30:58 PM

Latest Report: Mar 29, 2015 at 10:00 PM


Visibility: 31 mi

Pressure: 29.62 "Hg

Humidity: 73%

Dew point: 43 °F

Location of FreisingLocation

Historic Weather in Freising — Graph

°F

Freising temperature yesterday

Maximum temperature yesterday: 53 °F (at 4:00 PM)
Minimum temperature yesterday: 37 °F (at 3:00 AM)
Average temperature yesterday: 45 °F

Past Weeks' High & Low Weather Summary

 TemperatureHumidityPressure
High64 °F (Mar 17, 3:00 PM)99% (Mar 24, 1:00 AM)30.33 "Hg (Mar 24, 1:00 AM)
Low23 °F (Mar 21, 6:00 AM)31% (Mar 20, 5:00 PM)29.54 "Hg (Mar 25, 5:00 PM)
Average43 °F71%30.07 "Hg
* Reported Mar 14 9:00 PM — Mar 29 10:00 PM, Freising, Weather by CustomWeather, © 2015

Note: Actual official high and low records may vary slightly from our data, if they occured in-between our weather recording intervals... More about our weather records

Advertising

Freising weather history for previous 24 hours

 ConditionsComfort  
Time TempWeatherWind HumidityBarometerVisibility
10:00 PM
Sun, Mar 29
52 °FLight rain. Overcast.16 mph73%29.62 "Hg31 mi
9:00 PM51 °FOvercast.13 mph70%29.65 "Hg43 mi
8:00 PM51 °FOvercast.14 mph72%29.67 "Hg43 mi
7:00 PM50 °FLight rain. Overcast.15 mph74%29.70 "Hg37 mi
6:00 PM50 °FLight rain. Overcast.15 mph79%29.73 "Hg16 mi
5:00 PM50 °FLight rain. Overcast.13 mph87%29.74 "Hg9 mi
4:00 PM51 °FLight rain. Overcast.14 mph78%29.75 "Hg12 mi
3:00 PM54 °FLight rain. Overcast.14 mph66%29.76 "Hg25 mi
2:00 PM55 °FOvercast.13 mph57%29.77 "Hg47 mi
1:00 PM54 °FOvercast.16 mph60%29.80 "Hg47 mi
12:00 PM54 °FOvercast.15 mph62%29.82 "Hg31 mi
11:00 AM53 °FOvercast.16 mph67%29.85 "Hg31 mi
10:00 AM52 °FOvercast.14 mph70%29.88 "Hg31 mi
9:00 AM50 °FOvercast.13 mph75%29.90 "Hg31 mi
8:00 AM49 °FOvercast.10 mph79%29.91 "Hg25 mi
7:00 AM47 °FLight rain. Overcast.7 mph82%29.94 "Hg19 mi
5:00 AM46 °FOvercast.9 mph87%29.98 "Hg16 mi
4:00 AM46 °FLight rain. Overcast.8 mph88%30.01 "Hg16 mi
3:00 AM45 °FLight rain. Overcast.7 mph90%30.01 "Hg14 mi
1:00 AM44 °FOvercast.7 mph89%30.03 "Hg19 mi
12:00 AM44 °FLight rain. Overcast.6 mph92%30.05 "Hg7 mi
11:00 PM
Sat, Mar 28
45 °FLight rain. Overcast.9 mph83%30.06 "Hg12 mi
Weather by CustomWeather, © 2015

See weather overviewHow to use our weather pages